Location: Maiden_LMO
(35.5760°N, 81.2120°W)
Time: 15:37:25
(UTC-04:00)

Daily predictions for brighter satellites

Satellite Brightness Start Highest point End
(mag) Time Altitude Azimuth Time Altitude Azimuth Time Altitude Azimuth
Cosmos 2227 4.2 20:21:23 10° NNW 20:27:04 83° ENE 20:32:45 10° SSE
Cosmos 1954 Rocket 4.1 20:23:01 10° NNW 20:28:21 78° ENE 20:33:40 10° SSE
Cosmos 1975 Rocket 3.4 20:24:00 10° NNW 20:28:27 72° W 20:32:49 10° S
ALOS 3.0 20:25:05 10° S 20:29:40 57° W 20:34:17 10° NNW
USA 267 3.6 20:24:48 10° ESE 20:31:11 57° NE 20:37:35 10° NW
Cosmos 1812 4.3 20:27:46 10° NNW 20:31:25 40° W 20:35:02 10° SSW
NOSS 2-3 (D) 3.8 20:27:09 10° SSW 20:31:42 79° ESE 20:36:52 10° NE
FENGYUN 3A 4.2 20:26:36 10° S 20:31:54 64° W 20:37:14 10° NNW
Cosmos 1553 Rocket 4.1 20:28:02 10° N 20:34:00 52° E 20:39:53 10° SSE
S3M 4.3 20:28:01 10° N 20:34:06 49° E 20:40:13 10° SSE
Resurs 01 Rocket 2.0 20:36:48 10° SE 20:41:02 45° ENE 20:45:17 10° N
Cosmos 2151 Rocket 3.5 20:37:26 10° S 20:41:48 75° E 20:46:11 10° N
Envisat 3.7 20:40:51 10° SE 20:45:27 36° ENE 20:50:03 10° N
DELTA 2 R/B (1) 4.3 20:41:03 10° WNW 20:46:24 47° SSW 20:51:45 10° SE
Cosmos 1602 3.9 20:42:58 10° S 20:46:47 77° W 20:50:38 10° N
GENESIS II 4.2 20:42:54 10° NNW 20:46:50 83° WSW 20:50:42 10° SSE
Abrixas 2.9 20:44:37 10° SSW 20:46:58 31° SE 20:49:11 11° ENE
Cosmos 2263 Rocket 2.7 20:41:37 10° N 20:47:03 43° ENE 20:52:22 10° SE
Cosmos 1741 Rocket 4.2 20:44:51 10° N 20:50:00 53° ENE 20:55:07 10° SSE
Cosmos 2322 Rocket 2.6 20:45:34 10° SSW 20:51:14 70° WNW 20:56:56 10° NNE
Lacrosse 5 2.2 20:47:21 10° SW 20:52:24 69° NW 20:57:28 10° NE
Cosmos 1536 Rocket 3.6 20:48:31 10° N 20:52:49 59° E 20:57:06 10° SSE
Atlas Centaur 2 3.5 20:47:50 10° W 20:56:02 52° SSW 21:02:23 15° ESE
ATLAS 2AS CENTAUR R/B 3.0 20:50:09 10° SSW 20:57:43 85° ESE 21:05:51 10° NNE
SL-16 R/B 3.1 20:59:24 10° SW 21:04:55 53° WNW 21:10:28 10° NNE
Cosmos 2219 Rocket 4.1 21:08:26 11° ENE 21:08:26 11° ENE 21:09:09 10° ENE
Helios 1B rocket 3.6 21:03:53 10° NE 21:07:10 23° E 21:08:10 21° ESE
Centaur AC-116 4.4 21:05:34 10° WSW 21:11:07 21° S 21:12:37 17° SSE
Meteor 1-11 Rocket 4.1 21:06:36 10° SSW 21:12:25 72° W 21:18:08 10° N
FALCON 9 R/B 4.1 21:09:01 10° SSE 21:19:39 10° E 21:10:18 14° SE
Cosmos 1110 Rocket 3.9 21:09:20 10° S 21:14:24 64° ESE 21:19:32 10° NNE
GPS 2-05 Rocket1 3.4 21:12:47 10° W 21:16:04 44° SSW 21:17:20 29° SE
Cosmos 2322 3.7 21:12:46 10° S 21:18:18 61° ESE 21:23:54 10° NNE
Delta 2 Rocket 3.2 21:16:15 10° W 21:20:08 87° SSE 21:22:33 25° E
Cosmos 2360 Rocket 2.1 21:16:53 10° SSW 21:22:30 83° ESE 21:28:09 10° NNE
SeaSat 1 2.3 21:18:32 10° NNE 21:23:28 73° ESE 21:28:22 10° SSW
Cosmos 1331 Rocket 3.9 21:20:21 10° S 21:25:30 72° ESE 21:30:43 10° NNE
OPS 6432 4.3 21:22:41 10° SSW 21:26:41 68° ESE 21:29:53 10° NE
Meteor 1-23 Rocket 4.1 21:21:42 10° N 21:27:17 72° E 21:31:39 17° SSE
Okean 2 3.9 21:24:57 10° N 21:28:45 36° E 21:29:21 34° E
Cosmos 482 Debris 4.1 21:23:47 10° SW 21:28:59 88° NW 21:31:10 19° NE
Cosmos 1850 Rocket 4.5 21:25:07 10° NNW 21:30:22 60° WSW 21:35:25 11° S
COSMOS 2428 3.1 21:26:07 10° S 21:31:26 41° ESE 21:36:45 10° NE
Cosmos 1975 4.4 21:33:35 20° ENE 21:33:35 20° ENE 21:35:25 10° NE
Meteosat 1 Rocket2 4.2 21:32:21 10° WSW 21:36:52 41° S 21:38:59 31° SE
Cosmos 220 Rocket 4.0 21:35:48 10° NNW 21:40:08 83° WSW 21:42:04 33° SSE
Cosmos 2333 Rocket 3.9 21:47:12 17° ENE 21:47:12 17° ENE 21:48:50 10° NE
Cosmos 883 Rocket 4.5 21:40:14 10° N 21:46:22 83° W 21:51:30 16° S
USA 186 4.2 21:46:15 10° SSW 21:48:58 23° W 21:51:44 10° NW
Cosmos 1025 Rocket 2.8 21:45:16 10° N 21:49:33 82° E 21:50:36 51° SSE
Cosmos 2333 4.2 21:44:20 10° S 21:49:50 55° ESE 21:55:19 10° NNE
Cosmos 1607 4.2 21:44:19 10° NW 21:50:45 69° WSW 21:54:25 27° SSE
Okean 1 Rocket 4.1 21:47:22 10° SSW 21:51:32 45° W 21:55:45 10° N
Cosmos 1939 Rocket 3.4 21:51:36 29° SSW 21:53:23 54° W 21:57:14 10° NNW
Cosmos 1244 Rocket 4.3 21:53:51 22° S 21:57:59 74° E 22:04:07 10° N
USA 238 DEB 3.9 21:51:32 10° NNW 21:58:36 63° NE 22:01:04 41° ESE
USA 238 3.9 21:51:39 10° NNW 21:58:42 62° NE 22:01:09 41° ESE
Tiangong 1 2.9 21:56:33 10° WNW 21:58:00 25° W 21:58:00 25° W
Helios 1A 3.0 22:01:07 59° S 22:01:52 78° WSW 22:06:08 10° NNW
Cosmos 1818 3.5 22:01:11 10° SSW 22:06:35 86° WNW 22:12:04 10° NNE
ERS-1 Rocket 2.9 22:06:57 62° E 22:07:18 64° ENE 22:12:17 10° N
ATLAS 3B R/B 2.5 22:01:26 10° NNW 22:08:07 82° ENE 22:09:58 50° SE
OAO 1 Rocket 4.3 22:03:23 10° W 22:08:44 84° S 22:09:26 68° ESE
SL-8 R/B 4.1 22:04:12 10° NW 22:08:52 50° NNE 22:09:13 49° NE
Cosmos 1238 Rocket 3.9 22:02:23 10° N 22:08:57 64° E 22:10:05 54° SE
YAOGAN 6 3.5 22:10:08 41° WSW 22:10:16 41° W 22:13:38 10° NNW
SL-08 R/B 4.5 22:10:49 52° SE 22:12:00 61° E 22:18:14 10° NNE
ARGOS 3.3 22:12:31 51° ENE 22:12:31 51° ENE 22:17:42 10° N
USA 267 4.3 22:10:53 22° S 22:14:16 36° SW 22:20:12 10° WNW
Cosmos 1066 Rocket 4.1 22:10:01 10° N 22:15:27 62° E 22:15:33 62° E
Okean 1-7 Rocket 4.3 22:11:28 10° NNW 22:15:51 51° W 22:16:59 41° SW
Resurs 01 Rocket 4.4 22:15:25 10° SW 22:17:41 14° W 22:19:57 10° WNW
SPOT 5 3.6 22:31:51 42° NNE 22:31:51 42° NNE 22:35:07 10° N
Cosmos 2263 Rocket 4.2 22:26:19 10° NW 22:30:36 22° W 22:34:06 13° SW
Aureole 3 Rocket 3.8 22:23:15 10° N 22:30:55 89° E 22:31:40 71° S
NOSS 3-2 (C) 4.4 22:28:12 10° NNW 22:35:33 49° NE 22:36:46 46° ENE
Cosmos 1844 Rocket 2.7 22:31:31 10° NNW 22:36:49 74° NNE 22:36:49 74° NNE
MetOp-B 4.1 22:37:45 77° W 22:37:45 77° W 22:43:03 10° NNW
Cosmos 2278 Rocket 3.5 22:34:18 10° N 22:38:10 28° NE 22:38:10 28° NE
Atlas Centaur 2 4.0 22:38:33 10° W 22:45:00 27° SSW 22:45:00 27° SSW
H-2A R/B 2.8 22:46:54 45° N 22:46:54 45° N 22:50:23 10° N
Cosmos 2219 Rocket 2.4 22:50:02 69° NW 22:50:02 69° NW 22:55:31 10° NNE
Cosmos 1745 Rocket 3.9 22:50:53 79° W 22:50:54 79° W 22:57:05 10° N
CENTAUR R/B 4.2 22:48:37 10° NNW 22:55:22 30° NE 22:56:35 28° ENE
NOSS 3-4 (A) 3.7 22:56:26 31° SW 22:59:33 65° WNW 23:05:57 10° NNE
NOSS 3-4 (C) 3.7 22:57:10 37° SW 22:59:39 66° WNW 23:06:03 10° NNE
Terra 3.8 23:04:46 22° NNE 23:04:46 22° NNE 23:06:34 10° N
Cosmos 2333 Rocket 3.4 23:29:06 38° NW 23:29:06 38° NW 23:33:39 10° N
Cosmos 2237 Rocket 3.8 23:42:11 29° N 23:42:11 29° N 23:45:08 10° N
